| time (UTC) | temp F | wind direction | speed knots | gust knots | rain 1hr in | rain 24hr in | rain mn in | humidity % | barometer mb |
| 20260508132541 | 60 | 0 | 0.0 | 3.5 | 0.00 | 0.00 | 0.00 | 59 | 1018.7 |
| 20260508132044 | 60 | 0 | 0.0 | 4.3 | 0.00 | 0.00 | 0.00 | 58 | 1018.5 |
| 20260508131551 | 60 | 0 | 0.0 | 4.3 | 0.00 | 0.00 | 0.00 | 59 | 1018.5 |
| 20260508131044 | 60 | 15 | 0.0 | 6.1 | 0.00 | 0.00 | 0.00 | 58 | 1018.5 |
| 20260508130546 | 61 | 0 | 0.9 | 6.1 | 0.00 | 0.00 | 0.00 | 60 | 1018.5 |
| 20260508130049 | 62 | 349 | 0.0 | 7.0 | 0.00 | 0.00 | 0.00 | 59 | 1018.6 |
| 20260508125545 | 62 | 0 | 0.9 | 8.7 | 0.00 | 0.00 | 0.00 | 59 | 1018.6 |
| 20260508125045 | 62 | 0 | 0.9 | 8.7 | 0.00 | 0.00 | 0.00 | 58 | 1018.6 |
| 20260508124552 | 63 | 0 | 1.7 | 8.7 | 0.00 | 0.00 | 0.00 | 58 | 1018.6 |
| 20260508124044 | 62 | 17 | 0.0 | 7.0 | 0.00 | 0.00 | 0.00 | 57 | 1018.7 |
| 20260508123542 | 62 | 0 | 0.0 | 7.0 | 0.00 | 0.00 | 0.00 | 54 | 1018.6 |
| 20260508123101 | 62 | 0 | 0.0 | 7.0 | 0.00 | 0.00 | 0.00 | 56 | 1018.7 |
| 20260508122544 | 62 | 348 | 0.0 | 9.6 | 0.00 | 0.00 | 0.00 | 60 | 1018.8 |
| 20260508122044 | 62 | 360 | 0.9 | 9.6 | 0.00 | 0.00 | 0.00 | 58 | 1018.8 |
| 20260508121557 | 62 | 347 | 1.7 | 9.6 | 0.00 | 0.00 | 0.00 | 62 | 1018.7 |
| 20260508121044 | 61 | 0 | 0.0 | 5.2 | 0.00 | 0.00 | 0.00 | 58 | 1018.8 |
| 20260508120541 | 61 | 0 | 0.0 | 5.2 | 0.00 | 0.00 | 0.00 | 56 | 1018.6 |
| 20260508120055 | 62 | 0 | 0.9 | 5.2 | 0.00 | 0.00 | 0.00 | 59 | 1018.8 |
| 20260508115544 | 61 | 0 | 0.9 | 6.1 | 0.00 | 0.00 | 0.00 | 60 | 1018.8 |
| 20260508115043 | 61 | 296 | 0.9 | 6.1 | 0.00 | 0.00 | 0.00 | 59 | 1018.8 |
| 20260508114554 | 61 | 0 | 0.0 | 5.2 | 0.00 | 0.00 | 0.00 | 60 | 1018.7 |
| 20260508114046 | 61 | 0 | 0.0 | 5.2 | 0.00 | 0.00 | 0.00 | 59 | 1018.8 |
| 20260508113544 | 62 | 0 | 1.7 | 5.2 | 0.00 | 0.00 | 0.00 | 62 | 1018.8 |
| 20260508113105 | 61 | 0 | 0.0 | 7.8 | 0.00 | 0.00 | 0.00 | 63 | 1018.8 |
| 20260508112545 | 61 | 0 | 0.9 | 7.8 | 0.00 | 0.00 | 0.00 | 61 | 1018.8 |
| 20260508112044 | 62 | 0 | 0.0 | 5.2 | 0.00 | 0.00 | 0.00 | 64 | 1018.9 |
| 20260508111556 | 61 | 0 | 0.9 | 7.0 | 0.00 | 0.00 | 0.00 | 63 | 1018.9 |
| 20260508111045 | 61 | 0 | 0.0 | 7.0 | 0.00 | 0.00 | 0.00 | 65 | 1018.8 |
| 20260508110544 | 61 | 348 | 0.0 | 7.0 | 0.00 | 0.00 | 0.00 | 64 | 1019.0 |
| 20260508110058 | 61 | 0 | 0.0 | 7.0 | 0.00 | 0.00 | 0.00 | 65 | 1018.9 |
| 20260508105542 | 61 | 0 | 2.6 | 7.8 | 0.00 | 0.00 | 0.00 | 68 | 1018.9 |
| 20260508105044 | 60 | 0 | 0.9 | 7.8 | 0.00 | 0.00 | 0.00 | 68 | 1018.9 |
| 20260508104553 | 59 | 351 | 1.7 | 7.8 | 0.00 | 0.00 | 0.00 | 67 | 1019.0 |
| 20260508104044 | 60 | 0 | 2.6 | 7.8 | 0.00 | 0.00 | 0.00 | 67 | 1019.0 |
| 20260508103541 | 60 | 0 | 0.9 | 4.3 | 0.00 | 0.00 | 0.00 | 66 | 1019.0 |
| 20260508103049 | 61 | 0 | 0.0 | 3.5 | 0.00 | 0.00 | 0.00 | 67 | 1019.0 |
| 20260508102541 | 60 | 0 | 0.0 | 3.5 | 0.00 | 0.00 | 0.00 | 64 | 1019.1 |
| 20260508102045 | 60 | 31 | 0.0 | 0.9 | 0.00 | 0.00 | 0.00 | 64 | 1018.9 |
| 20260508101552 | 60 | 0 | 0.0 | 4.3 | 0.00 | 0.00 | 0.00 | 63 | 1019.0 |
| 20260508101043 | 60 | 0 | 0.9 | 5.2 | 0.00 | 0.00 | 0.00 | 63 | 1019.0 |
| 20260508100543 | 59 | 0 | 0.9 | 5.2 | 0.00 | 0.00 | 0.00 | 66 | 1019.0 |
| 20260508100052 | 59 | 0 | 0.0 | 4.3 | 0.00 | 0.00 | 0.00 | 65 | 1019.0 |
| 20260508095542 | 59 | 0 | 0.0 | 7.8 | 0.00 | 0.00 | 0.00 | 67 | 1019.0 |
| 20260508095045 | 58 | 0 | 0.0 | 7.8 | 0.00 | 0.00 | 0.00 | 65 | 1019.0 |
| 20260508094602 | 58 | 352 | 0.9 | 7.8 | 0.00 | 0.00 | 0.00 | 67 | 1019.1 |
| 20260508094044 | 59 | 0 | 0.0 | 5.2 | 0.00 | 0.00 | 0.00 | 67 | 1019.1 |
| 20260508093544 | 59 | 0 | 0.0 | 4.3 | 0.00 | 0.00 | 0.00 | 68 | 1019.1 |
| 20260508093054 | 59 | 0 | 0.9 | 4.3 | 0.00 | 0.00 | 0.00 | 67 | 1019.1 |
| 20260508092544 | 59 | 15 | 0.0 | 3.5 | 0.00 | 0.00 | 0.00 | 73 | 1019.1 |
| 20260508092044 | 58 | 0 | 0.0 | 3.5 | 0.00 | 0.00 | 0.00 | 72 | 1019.2 |
| 20260508091617 | 57 | 0 | 0.0 | 4.3 | 0.00 | 0.00 | 0.00 | 75 | 1019.1 |
| 20260508091043 | 56 | 0 | 0.0 | 4.3 | 0.00 | 0.00 | 0.00 | 74 | 1019.2 |
| 20260508090545 | 57 | 11 | 0.0 | 4.3 | 0.00 | 0.00 | 0.00 | 74 | 1019.2 |
| 20260508090059 | 56 | 5 | 0.0 | 4.3 | 0.00 | 0.00 | 0.00 | 74 | 1019.1 |
| 20260508085543 | 56 | 5 | 0.0 | 3.5 | 0.00 | 0.00 | 0.00 | 76 | 1019.2 |
| 20260508085045 | 55 | 360 | 0.9 | 8.7 | 0.00 | 0.00 | 0.00 | 78 | 1019.1 |
| 20260508084552 | 54 | 352 | 0.0 | 8.7 | 0.00 | 0.00 | 0.00 | 80 | 1019.2 |
| 20260508084043 | 54 | 0 | 1.7 | 8.7 | 0.00 | 0.00 | 0.00 | 79 | 1019.1 |
| 20260508083543 | 55 | 0 | 0.0 | 3.5 | 0.00 | 0.00 | 0.00 | 78 | 1019.2 |
| 20260508083053 | 56 | 0 | 0.9 | 3.5 | 0.00 | 0.00 | 0.00 | 79 | 1019.2 |
| 20260508082542 | 56 | 0 | 0.0 | 7.0 | 0.00 | 0.00 | 0.00 | 78 | 1019.2 |
| 20260508082045 | 56 | 0 | 0.0 | 7.0 | 0.00 | 0.00 | 0.00 | 79 | 1019.2 |
| 20260508081552 | 55 | 20 | 0.0 | 3.5 | 0.00 | 0.00 | 0.00 | 79 | 1019.3 |
| 20260508081042 | 55 | 0 | 0.0 | 0.0 | 0.00 | 0.00 | 0.00 | 78 | 1019.2 |
| 20260508080542 | 54 | 0 | 0.0 | 0.0 | 0.00 | 0.00 | 0.00 | 78 | 1019.2 |
| 20260508080052 | 54 | 0 | 0.0 | 0.0 | 0.00 | 0.00 | 0.00 | 80 | 1019.2 |
| 20260508075541 | 54 | 0 | 0.0 | 0.0 | 0.00 | 0.00 | 0.00 | 80 | 1019.2 |
| 20260508075042 | 54 | 0 | 0.0 | 0.0 | 0.00 | 0.00 | 0.00 | 83 | 1019.1 |
| 20260508074553 | 53 | 0 | 0.0 | 0.0 | 0.00 | 0.00 | 0.00 | 82 | 1019.0 |
| 20260508074043 | 52 | 0 | 0.0 | 0.0 | 0.00 | 0.00 | 0.00 | 83 | 1019.1 |
| 20260508073542 | 52 | 0 | 0.0 | 0.0 | 0.00 | 0.00 | 0.00 | 85 | 1019.2 |
| 20260508073057 | 52 | 0 | 0.0 | 0.0 | 0.00 | 0.00 | 0.00 | 87 | 1019.3 |
| 20260508072542 | 51 | 0 | 0.0 | 0.0 | 0.00 | 0.00 | 0.00 | 88 | 1019.2 |
| 20260508072043 | 51 | 0 | 0.0 | 0.0 | 0.00 | 0.00 | 0.00 | 90 | 1019.3 |
| 20260508071556 | 50 | 0 | 0.0 | 0.0 | 0.00 | 0.00 | 0.00 | 91 | 1019.2 |
| 20260508071041 | 50 | 0 | 0.0 | 0.0 | 0.00 | 0.00 | 0.00 | 93 | 1019.2 |
| 20260508070543 | 49 | 0 | 0.0 | 0.0 | 0.00 | 0.00 | 0.00 | 94 | 1019.1 |
| 20260508070100 | 48 | 0 | 0.0 | 0.0 | 0.00 | 0.00 | 0.00 | 95 | 1019.2 |
| 20260508065543 | 47 | 0 | 0.0 | 0.0 | 0.00 | 0.00 | 0.00 | 96 | 1019.2 |
| 20260508065042 | 47 | 0 | 0.0 | 0.0 | 0.00 | 0.00 | 0.00 | 96 | 1019.1 |
| 20260508064555 | 46 | 0 | 0.0 | 0.0 | 0.00 | 0.00 | 0.00 | 96 | 1018.9 |
| 20260508064042 | 45 | 0 | 0.0 | 0.0 | 0.00 | 0.00 | 0.00 | 96 | 1018.9 |
| 20260508063542 | 45 | 0 | 0.0 | 0.0 | 0.00 | 0.00 | 0.00 | 97 | 1018.8 |
| 20260508063120 | 44 | 0 | 0.0 | 0.0 | 0.00 | 0.00 | 0.00 | 96 | 1018.7 |
| 20260508062542 | 44 | 0 | 0.0 | 0.0 | 0.00 | 0.00 | 0.00 | 96 | 1018.7 |
| 20260508062046 | 43 | 0 | 0.0 | 0.0 | 0.00 | 0.00 | 0.00 | 96 | 1018.7 |
| 20260508061553 | 43 | 0 | 0.0 | 0.0 | 0.00 | 0.00 | 0.00 | 96 | 1018.6 |
| 20260508061046 | 42 | 0 | 0.0 | 0.0 | 0.00 | 0.00 | 0.00 | 96 | 1018.6 |
| 20260508060546 | 42 | 0 | 0.0 | 0.0 | 0.00 | 0.00 | 0.00 | 96 | 1018.8 |
| 20260508060055 | 42 | 0 | 0.0 | 0.0 | 0.00 | 0.00 | 0.00 | 96 | 1018.7 |
| 20260508055543 | 42 | 0 | 0.0 | 0.0 | 0.00 | 0.00 | 0.00 | 96 | 1018.7 |
| 20260508055043 | 42 | 0 | 0.0 | 0.0 | 0.00 | 0.00 | 0.00 | 96 | 1018.7 |
| 20260508054552 | 42 | 0 | 0.0 | 0.0 | 0.00 | 0.00 | 0.00 | 96 | 1018.6 |
| 20260508054043 | 41 | 0 | 0.0 | 0.0 | 0.00 | 0.00 | 0.00 | 96 | 1018.6 |
| 20260508053543 | 41 | 0 | 0.0 | 0.0 | 0.00 | 0.00 | 0.00 | 96 | 1018.6 |
| 20260508053102 | 41 | 0 | 0.0 | 0.0 | 0.00 | 0.00 | 0.00 | 96 | 1018.6 |
| 20260508052545 | 41 | 0 | 0.0 | 0.0 | 0.00 | 0.00 | 0.00 | 96 | 1018.6 |
| 20260508052046 | 40 | 0 | 0.0 | 0.0 | 0.00 | 0.00 | 0.00 | 96 | 1018.6 |
| 20260508051618 | 40 | 0 | 0.0 | 0.0 | 0.00 | 0.00 | 0.00 | 96 | 1018.6 |
| 20260508051047 | 40 | 0 | 0.0 | 0.0 | 0.00 | 0.00 | 0.00 | 96 | 1018.5 |
| 20260508050544 | 40 | 0 | 0.0 | 0.0 | 0.00 | 0.00 | 0.00 | 96 | 1018.6 |
| 20260508050054 | 39 | 0 | 0.0 | 0.0 | 0.00 | 0.00 | 0.00 | 96 | 1018.5 |
| 20260508045546 | 39 | 0 | 0.0 | 0.0 | 0.00 | 0.00 | 0.00 | 96 | 1018.5 |
| 20260508045048 | 38 | 0 | 0.0 | 0.0 | 0.00 | 0.00 | 0.00 | 96 | 1018.4 |
| 20260508044554 | 38 | 0 | 0.0 | 0.0 | 0.00 | 0.00 | 0.00 | 96 | 1018.3 |
| 20260508044046 | 38 | 0 | 0.0 | 0.0 | 0.00 | 0.00 | 0.00 | 96 | 1018.3 |
| 20260508043543 | 37 | 0 | 0.0 | 0.0 | 0.00 | 0.00 | 0.00 | 96 | 1018.2 |
| 20260508043058 | 37 | 0 | 0.0 | 0.0 | 0.00 | 0.00 | 0.00 | 96 | 1018.2 |
| 20260508042544 | 37 | 0 | 0.0 | 0.0 | 0.00 | 0.00 | 0.00 | 96 | 1018.2 |
| 20260508042045 | 37 | 0 | 0.0 | 0.0 | 0.00 | 0.00 | 0.00 | 96 | 1018.3 |
| 20260508041553 | 37 | 0 | 0.0 | 0.0 | 0.00 | 0.00 | 0.00 | 96 | 1018.2 |
| 20260508041047 | 37 | 0 | 0.0 | 0.0 | 0.00 | 0.00 | 0.00 | 96 | 1018.3 |
| 20260508040545 | 37 | 0 | 0.0 | 0.0 | 0.00 | 0.00 | 0.00 | 96 | 1018.3 |
| 20260508040056 | 37 | 0 | 0.0 | 0.0 | 0.00 | 0.00 | 0.00 | 96 | 1018.3 |
| 20260508035546 | 37 | 0 | 0.0 | 0.0 | 0.00 | 0.00 | 0.00 | 96 | 1018.3 |
| 20260508035046 | 37 | 0 | 0.0 | 0.0 | 0.00 | 0.00 | 0.00 | 96 | 1018.3 |
| 20260508034552 | 38 | 0 | 0.0 | 0.0 | 0.00 | 0.00 | 0.00 | 96 | 1018.2 |
| 20260508034043 | 38 | 0 | 0.0 | 0.0 | 0.00 | 0.00 | 0.00 | 96 | 1018.3 |
| 20260508033545 | 37 | 0 | 0.0 | 0.0 | 0.00 | 0.00 | 0.00 | 96 | 1018.3 |
| 20260508033053 | 37 | 0 | 0.0 | 0.0 | 0.00 | 0.00 | 0.00 | 96 | 1018.4 |
| 20260508032546 | 37 | 0 | 0.0 | 0.0 | 0.00 | 0.00 | 0.00 | 96 | 1018.3 |
| 20260508032046 | 38 | 0 | 0.0 | 0.0 | 0.00 | 0.00 | 0.00 | 96 | 1018.3 |
| 20260508031551 | 38 | 0 | 0.0 | 0.0 | 0.00 | 0.00 | 0.00 | 96 | 1018.2 |
| 20260508031045 | 38 | 0 | 0.0 | 0.0 | 0.00 | 0.00 | 0.00 | 96 | 1018.2 |
| 20260508030545 | 38 | 0 | 0.0 | 0.0 | 0.00 | 0.00 | 0.00 | 95 | 1018.2 |
| 20260508030056 | 38 | 0 | 0.0 | 0.0 | 0.00 | 0.00 | 0.00 | 96 | 1018.2 |
| 20260508025544 | 38 | 0 | 0.0 | 0.0 | 0.00 | 0.00 | 0.00 | 96 | 1018.1 |
| 20260508025044 | 38 | 0 | 0.0 | 0.0 | 0.00 | 0.00 | 0.00 | 95 | 1018.2 |
| 20260508024551 | 38 | 0 | 0.0 | 0.0 | 0.00 | 0.00 | 0.00 | 95 | 1018.2 |
| 20260508024047 | 39 | 0 | 0.0 | 0.0 | 0.00 | 0.00 | 0.00 | 96 | 1018.2 |
| 20260508023546 | 39 | 0 | 0.0 | 0.0 | 0.00 | 0.00 | 0.00 | 95 | 1018.1 |
| 20260508023053 | 39 | 0 | 0.0 | 0.0 | 0.00 | 0.00 | 0.00 | 95 | 1018.2 |
| 20260508022545 | 39 | 0 | 0.0 | 0.0 | 0.00 | 0.00 | 0.00 | 95 | 1018.2 |
| 20260508022048 | 39 | 0 | 0.0 | 0.0 | 0.00 | 0.00 | 0.00 | 96 | 1018.3 |
| 20260508021555 | 39 | 0 | 0.0 | 0.0 | 0.00 | 0.00 | 0.00 | 96 | 1018.3 |
| 20260508021043 | 39 | 0 | 0.0 | 0.0 | 0.00 | 0.00 | 0.00 | 96 | 1018.3 |
| 20260508020543 | 39 | 0 | 0.0 | 0.0 | 0.00 | 0.00 | 0.00 | 96 | 1018.3 |
| 20260508020105 | 39 | 0 | 0.0 | 0.0 | 0.00 | 0.00 | 0.00 | 95 | 1018.3 |
| 20260508015543 | 39 | 0 | 0.0 | 0.0 | 0.00 | 0.01 | 0.00 | 95 | 1018.3 |
| 20260508015045 | 39 | 0 | 0.0 | 0.0 | 0.00 | 0.01 | 0.00 | 95 | 1018.2 |
| 20260508014552 | 40 | 0 | 0.0 | 0.0 | 0.00 | 0.01 | 0.00 | 95 | 1018.2 |
| 20260508014047 | 40 | 0 | 0.0 | 0.0 | 0.00 | 0.01 | 0.00 | 95 | 1018.3 |
| 20260508013546 | 40 | 0 | 0.0 | 0.0 | 0.00 | 0.01 | 0.00 | 95 | 1018.2 |
| 20260508013053 | 40 | 0 | 0.0 | 0.0 | 0.00 | 0.01 | 0.00 | 95 | 1018.2 |
| 20260508012544 | 40 | 0 | 0.0 | 0.0 | 0.00 | 0.01 | 0.00 | 95 | 1018.3 |
| 20260508012046 | 40 | 0 | 0.0 | 0.0 | 0.00 | 0.01 | 0.00 | 95 | 1018.2 |
| 20260508011556 | 40 | 0 | 0.0 | 0.0 | 0.00 | 0.01 | 0.00 | 95 | 1018.2 |
| 20260508011043 | 40 | 0 | 0.0 | 0.0 | 0.00 | 0.01 | 0.00 | 95 | 1018.1 |
| 20260508010543 | 41 | 0 | 0.0 | 0.0 | 0.00 | 0.01 | 0.00 | 95 | 1018.2 |
| 20260508010111 | 41 | 0 | 0.0 | 0.0 | 0.00 | 0.01 | 0.00 | 95 | 1018.2 |
| 20260508005544 | 41 | 0 | 0.0 | 0.0 | 0.00 | 0.03 | 0.00 | 95 | 1018.3 |
| 20260508005045 | 41 | 0 | 0.0 | 0.0 | 0.00 | 0.03 | 0.00 | 95 | 1018.2 |
| 20260508004557 | 41 | 0 | 0.0 | 0.0 | 0.00 | 0.03 | 0.00 | 95 | 1018.3 |
| 20260508004047 | 41 | 0 | 0.0 | 0.0 | 0.00 | 0.03 | 0.00 | 95 | 1018.3 |
| 20260508003543 | 41 | 0 | 0.0 | 0.0 | 0.00 | 0.03 | 0.00 | 95 | 1018.3 |
| 20260508003103 | 41 | 0 | 0.0 | 0.0 | 0.00 | 0.03 | 0.00 | 95 | 1018.4 |
| 20260508002544 | 42 | 0 | 0.0 | 0.0 | 0.00 | 0.03 | 0.00 | 95 | 1018.3 |
| 20260508002044 | 42 | 0 | 0.0 | 0.0 | 0.00 | 0.03 | 0.00 | 95 | 1018.3 |
| 20260508001551 | 42 | 0 | 0.0 | 0.0 | 0.00 | 0.03 | 0.00 | 95 | 1018.4 |
| 20260508001044 | 42 | 0 | 0.0 | 0.0 | 0.00 | 0.03 | 0.00 | 95 | 1018.4 |
| 20260508000545 | 42 | 0 | 0.0 | 0.0 | 0.00 | 0.03 | 0.00 | 95 | 1018.5 |
| 20260508000054 | 42 | 0 | 0.0 | 0.0 | 0.00 | 0.03 | 0.00 | 95 | 1018.5 |
| 20260507235544 | 42 | 0 | 0.0 | 0.0 | 0.00 | 0.03 | 0.00 | 95 | 1018.4 |
| 20260507235043 | 42 | 0 | 0.0 | 0.0 | 0.00 | 0.03 | 0.00 | 95 | 1018.4 |
| 20260507234549 | 42 | 0 | 0.0 | 0.0 | 0.00 | 0.03 | 0.00 | 95 | 1018.5 |
| 20260507234046 | 42 | 0 | 0.0 | 0.0 | 0.00 | 0.03 | 0.00 | 95 | 1018.5 |
| 20260507233543 | 42 | 0 | 0.0 | 0.0 | 0.00 | 0.03 | 0.00 | 95 | 1018.4 |
| 20260507233051 | 42 | 0 | 0.0 | 0.0 | 0.00 | 0.03 | 0.00 | 95 | 1018.6 |
| 20260507232543 | 42 | 0 | 0.0 | 0.0 | 0.00 | 0.03 | 0.00 | 94 | 1018.4 |
| 20260507232047 | 42 | 0 | 0.0 | 0.0 | 0.00 | 0.03 | 0.00 | 95 | 1018.5 |
| 20260507231553 | 42 | 0 | 0.0 | 0.0 | 0.00 | 0.03 | 0.00 | 95 | 1018.5 |
| 20260507231048 | 42 | 0 | 0.0 | 0.0 | 0.00 | 0.03 | 0.00 | 94 | 1018.6 |
| 20260507230544 | 42 | 0 | 0.0 | 0.0 | 0.00 | 0.03 | 0.00 | 94 | 1018.6 |
| 20260507230107 | 43 | 0 | 0.0 | 0.0 | 0.00 | 0.03 | 0.00 | 94 | 1018.5 |
| 20260507225546 | 43 | 0 | 0.0 | 0.0 | 0.00 | 0.03 | 0.00 | 94 | 1018.6 |
| 20260507225046 | 43 | 0 | 0.0 | 0.0 | 0.00 | 0.03 | 0.00 | 94 | 1018.4 |
| 20260507224555 | 43 | 0 | 0.0 | 0.0 | 0.00 | 0.03 | 0.00 | 94 | 1018.5 |
| 20260507224043 | 43 | 0 | 0.0 | 0.0 | 0.00 | 0.03 | 0.00 | 94 | 1018.5 |
| 20260507223544 | 43 | 0 | 0.0 | 0.0 | 0.00 | 0.03 | 0.00 | 94 | 1018.5 |
| 20260507223201 | 44 | 0 | 0.0 | 0.0 | 0.00 | 0.03 | 0.00 | 94 | 1018.6 |
| 20260507222544 | 44 | 0 | 0.0 | 0.0 | 0.00 | 0.03 | 0.00 | 94 | 1018.4 |
| 20260507222045 | 44 | 0 | 0.0 | 0.0 | 0.00 | 0.03 | 0.00 | 94 | 1018.4 |
| 20260507221555 | 44 | 0 | 0.0 | 0.0 | 0.00 | 0.03 | 0.00 | 94 | 1018.4 |
| 20260507221046 | 44 | 0 | 0.0 | 0.0 | 0.00 | 0.03 | 0.00 | 94 | 1018.4 |
| 20260507220545 | 44 | 0 | 0.0 | 0.0 | 0.00 | 0.03 | 0.00 | 94 | 1018.3 |
| 20260507220056 | 45 | 0 | 0.0 | 0.0 | 0.00 | 0.03 | 0.00 | 94 | 1018.3 |
| 20260507215544 | 45 | 0 | 0.0 | 0.0 | 0.00 | 0.03 | 0.03 | 94 | 1018.4 |
| 20260507215046 | 45 | 0 | 0.0 | 0.0 | 0.00 | 0.03 | 0.03 | 94 | 1018.4 |
| 20260507214557 | 45 | 0 | 0.0 | 0.0 | 0.00 | 0.03 | 0.03 | 94 | 1018.3 |
| 20260507214045 | 45 | 0 | 0.0 | 0.0 | 0.00 | 0.03 | 0.03 | 93 | 1018.2 |
| 20260507213544 | 45 | 0 | 0.0 | 0.0 | 0.00 | 0.03 | 0.03 | 93 | 1018.2 |
| 20260507213121 | 46 | 0 | 0.0 | 0.0 | 0.00 | 0.03 | 0.03 | 93 | 1018.3 |
| 20260507212545 | 46 | 0 | 0.0 | 0.0 | 0.00 | 0.03 | 0.03 | 93 | 1018.3 |
| 20260507212043 | 46 | 0 | 0.0 | 0.0 | 0.00 | 0.03 | 0.03 | 93 | 1018.3 |
| 20260507211552 | 46 | 0 | 0.0 | 0.0 | 0.00 | 0.03 | 0.03 | 93 | 1018.3 |
| 20260507211043 | 46 | 0 | 0.0 | 2.6 | 0.00 | 0.03 | 0.03 | 93 | 1018.3 |
| 20260507210547 | 46 | 0 | 0.0 | 2.6 | 0.00 | 0.03 | 0.03 | 93 | 1018.4 |
| 20260507210055 | 46 | 0 | 0.0 | 2.6 | 0.00 | 0.03 | 0.03 | 93 | 1018.4 |
| 20260507205543 | 46 | 0 | 0.0 | 0.0 | 0.00 | 0.03 | 0.03 | 93 | 1018.3 |
| 20260507205049 | 46 | 0 | 0.0 | 0.0 | 0.00 | 0.03 | 0.03 | 92 | 1018.2 |
| 20260507204555 | 46 | 0 | 0.0 | 0.0 | 0.00 | 0.03 | 0.03 | 92 | 1018.2 |
| 20260507204045 | 46 | 0 | 0.0 | 0.0 | 0.00 | 0.03 | 0.03 | 92 | 1018.1 |
| 20260507203545 | 46 | 0 | 0.0 | 0.0 | 0.00 | 0.03 | 0.03 | 92 | 1018.1 |
| 20260507203051 | 46 | 0 | 0.0 | 0.0 | 0.00 | 0.03 | 0.03 | 92 | 1018.1 |
| 20260507202544 | 46 | 0 | 0.0 | 0.0 | 0.00 | 0.03 | 0.03 | 92 | 1018.0 |
| 20260507202048 | 46 | 0 | 0.0 | 0.0 | 0.00 | 0.03 | 0.03 | 92 | 1018.0 |
| 20260507201603 | 46 | 0 | 0.0 | 0.0 | 0.00 | 0.03 | 0.03 | 91 | 1017.8 |
| 20260507201044 | 47 | 0 | 0.0 | 0.0 | 0.00 | 0.03 | 0.03 | 91 | 1017.9 |
| 20260507200544 | 47 | 0 | 0.0 | 0.0 | 0.00 | 0.03 | 0.03 | 91 | 1017.8 |
| 20260507200109 | 47 | 0 | 0.0 | 0.0 | 0.00 | 0.03 | 0.03 | 91 | 1017.8 |
| 20260507195545 | 47 | 0 | 0.0 | 0.0 | 0.00 | 0.03 | 0.03 | 90 | 1017.8 |
| 20260507195045 | 47 | 0 | 0.0 | 0.0 | 0.00 | 0.03 | 0.03 | 90 | 1017.7 |
| 20260507194554 | 48 | 0 | 0.0 | 0.0 | 0.00 | 0.03 | 0.03 | 90 | 1017.8 |
| 20260507194047 | 48 | 0 | 0.0 | 0.0 | 0.00 | 0.03 | 0.03 | 90 | 1017.8 |
| 20260507193545 | 48 | 0 | 0.0 | 0.0 | 0.00 | 0.03 | 0.03 | 90 | 1017.8 |
| 20260507193053 | 48 | 0 | 0.0 | 0.0 | 0.00 | 0.03 | 0.03 | 89 | 1017.8 |
| 20260507192545 | 48 | 0 | 0.0 | 0.0 | 0.00 | 0.03 | 0.03 | 89 | 1017.7 |
| 20260507192044 | 49 | 0 | 0.0 | 0.0 | 0.00 | 0.03 | 0.03 | 88 | 1017.7 |
| 20260507191553 | 49 | 0 | 0.0 | 0.0 | 0.00 | 0.03 | 0.03 | 88 | 1017.6 |
| 20260507191045 | 49 | 0 | 0.0 | 0.0 | 0.00 | 0.03 | 0.03 | 88 | 1017.6 |
| 20260507190544 | 49 | 0 | 0.0 | 0.0 | 0.00 | 0.03 | 0.03 | 87 | 1017.6 |
| 20260507190054 | 49 | 0 | 0.0 | 1.7 | 0.00 | 0.03 | 0.03 | 87 | 1017.6 |
| 20260507185545 | 50 | 0 | 0.0 | 1.7 | 0.00 | 0.04 | 0.03 | 87 | 1017.6 |
| 20260507185045 | 50 | 0 | 0.0 | 1.7 | 0.00 | 0.04 | 0.03 | 86 | 1017.7 |
| 20260507184555 | 50 | 0 | 0.0 | 3.5 | 0.00 | 0.04 | 0.03 | 85 | 1017.7 |
| 20260507184044 | 50 | 0 | 0.0 | 4.3 | 0.00 | 0.04 | 0.03 | 85 | 1017.6 |
| 20260507183550 | 50 | 0 | 0.0 | 4.3 | 0.00 | 0.04 | 0.03 | 84 | 1017.6 |
| 20260507183056 | 51 | 0 | 0.0 | 3.5 | 0.00 | 0.04 | 0.03 | 84 | 1017.5 |
| 20260507182543 | 51 | 0 | 0.0 | 4.3 | 0.00 | 0.04 | 0.03 | 83 | 1017.4 |
| 20260507182045 | 51 | 51 | 0.0 | 4.3 | 0.00 | 0.04 | 0.03 | 83 | 1017.4 |
| 20260507181559 | 51 | 24 | 0.0 | 7.8 | 0.00 | 0.04 | 0.03 | 82 | 1017.4 |
| 20260507181047 | 51 | 0 | 0.0 | 7.8 | 0.00 | 0.04 | 0.03 | 81 | 1017.3 |
| 20260507180546 | 52 | 0 | 0.9 | 6.1 | 0.00 | 0.04 | 0.03 | 80 | 1017.2 |
| 20260507180054 | 52 | 0 | 0.0 | 6.1 | 0.00 | 0.04 | 0.03 | 80 | 1017.4 |
| 20260507175545 | 52 | 0 | 0.9 | 5.2 | 0.00 | 0.04 | 0.03 | 80 | 1017.2 |
| 20260507175045 | 52 | 0 | 0.0 | 3.5 | 0.00 | 0.04 | 0.03 | 80 | 1017.2 |
| 20260507174558 | 52 | 0 | 0.0 | 4.3 | 0.00 | 0.04 | 0.03 | 79 | 1017.2 |
| 20260507174044 | 52 | 0 | 0.0 | 4.3 | 0.00 | 0.04 | 0.03 | 78 | 1017.2 |
| 20260507173543 | 52 | 0 | 0.9 | 5.2 | 0.00 | 0.04 | 0.03 | 78 | 1017.1 |
| 20260507173058 | 53 | 0 | 0.0 | 5.2 | 0.00 | 0.04 | 0.03 | 78 | 1017.2 |
| 20260507172548 | 53 | 0 | 0.9 | 5.2 | 0.00 | 0.04 | 0.03 | 79 | 1017.1 |
| 20260507172044 | 53 | 0 | 0.0 | 5.2 | 0.00 | 0.04 | 0.03 | 79 | 1017.0 |
| 20260507171559 | 53 | 0 | 0.0 | 5.2 | 0.00 | 0.04 | 0.03 | 79 | 1017.1 |
| 20260507171045 | 53 | 0 | 0.9 | 5.2 | 0.00 | 0.04 | 0.03 | 78 | 1016.9 |
| 20260507170547 | 54 | 40 | 0.0 | 5.2 | 0.00 | 0.04 | 0.03 | 79 | 1016.9 |
| 20260507170053 | 53 | 0 | 0.0 | 9.6 | 0.00 | 0.04 | 0.03 | 79 | 1017.0 |
| 20260507165543 | 53 | 0 | 0.0 | 9.6 | 0.00 | 0.05 | 0.03 | 78 | 1016.8 |
| 20260507165044 | 54 | 0 | 0.9 | 8.7 | 0.00 | 0.05 | 0.03 | 77 | 1016.8 |
| 20260507164551 | 54 | 0 | 0.0 | 8.7 | 0.00 | 0.05 | 0.03 | 76 | 1016.8 |
| 20260507164045 | 54 | 28 | 1.7 | 7.0 | 0.00 | 0.05 | 0.03 | 75 | 1016.7 |
| 20260507163544 | 55 | 43 | 0.9 | 7.0 | 0.00 | 0.05 | 0.03 | 75 | 1016.8 |
| 20260507163051 | 54 | 39 | 0.9 | 6.1 | 0.00 | 0.05 | 0.03 | 74 | 1016.8 |
| 20260507162545 | 54 | 0 | 0.0 | 3.5 | 0.00 | 0.05 | 0.03 | 74 | 1016.7 |
| 20260507162047 | 54 | 0 | 0.0 | 5.2 | 0.00 | 0.05 | 0.03 | 73 | 1016.9 |
| 20260507161608 | 55 | 0 | 0.0 | 5.2 | 0.00 | 0.05 | 0.03 | 72 | 1016.8 |
| 20260507161044 | 55 | 0 | 0.9 | 5.2 | 0.00 | 0.05 | 0.03 | 71 | 1016.8 |
| 20260507160545 | 55 | 0 | 0.0 | 1.7 | 0.00 | 0.05 | 0.03 | 65 | 1016.7 |
| 20260507160052 | 54 | 0 | 0.0 | 4.3 | 0.00 | 0.05 | 0.03 | 65 | 1016.7 |
| 20260507155543 | 54 | 0 | 0.9 | 8.7 | 0.00 | 0.06 | 0.03 | 68 | 1016.7 |
| 20260507155043 | 54 | 0 | 1.7 | 8.7 | 0.00 | 0.06 | 0.03 | 68 | 1016.7 |
| 20260507154553 | 54 | 18 | 0.0 | 8.7 | 0.00 | 0.06 | 0.03 | 68 | 1016.7 |
| 20260507154045 | 54 | 0 | 0.0 | 3.5 | 0.00 | 0.06 | 0.03 | 68 | 1016.7 |
| 20260507153546 | 54 | 0 | 0.0 | 6.1 | 0.00 | 0.06 | 0.03 | 69 | 1016.7 |
| 20260507153111 | 55 | 0 | 0.9 | 8.7 | 0.00 | 0.06 | 0.03 | 72 | 1016.6 |
| 20260507152544 | 55 | 0 | 0.0 | 8.7 | 0.00 | 0.06 | 0.03 | 70 | 1016.6 |
| 20260507152044 | 55 | 0 | 2.6 | 8.7 | 0.00 | 0.06 | 0.03 | 70 | 1016.6 |
| 20260507151559 | 55 | 0 | 0.9 | 7.8 | 0.00 | 0.06 | 0.03 | 72 | 1016.6 |
| 20260507151043 | 55 | 22 | 0.9 | 4.3 | 0.00 | 0.06 | 0.03 | 72 | 1016.5 |
| 20260507150545 | 55 | 0 | 0.0 | 4.3 | 0.00 | 0.06 | 0.03 | 71 | 1016.5 |
| 20260507150054 | 54 | 0 | 0.0 | 0.9 | 0.00 | 0.06 | 0.03 | 73 | 1016.6 |
| 20260507145543 | 55 | 0 | 0.0 | 7.0 | 0.00 | 0.08 | 0.03 | 72 | 1016.6 |
| 20260507145043 | 55 | 0 | 0.9 | 7.0 | 0.00 | 0.08 | 0.03 | 71 | 1016.6 |
| 20260507144552 | 55 | 0 | 0.0 | 7.0 | 0.00 | 0.08 | 0.03 | 72 | 1016.6 |
| 20260507144045 | 55 | 0 | 0.0 | 5.2 | 0.00 | 0.08 | 0.03 | 73 | 1016.6 |
| 20260507143544 | 55 | 0 | 0.0 | 5.2 | 0.00 | 0.08 | 0.03 | 71 | 1016.6 |
| 20260507143055 | 55 | 329 | 0.0 | 7.0 | 0.00 | 0.08 | 0.03 | 70 | 1016.5 |
| 20260507142544 | 55 | 0 | 0.0 | 7.0 | 0.00 | 0.08 | 0.03 | 73 | 1016.5 |
| 20260507142043 | 55 | 0 | 1.7 | 7.0 | 0.00 | 0.08 | 0.03 | 71 | 1016.5 |
| 20260507141549 | 56 | 0 | 0.0 | 7.0 | 0.00 | 0.08 | 0.03 | 69 | 1016.6 |
| 20260507141044 | 56 | 0 | 0.9 | 7.8 | 0.00 | 0.08 | 0.03 | 72 | 1016.7 |
| 20260507140544 | 55 | 0 | 0.0 | 7.8 | 0.00 | 0.08 | 0.03 | 73 | 1016.5 |
| 20260507140053 | 55 | 9 | 0.0 | 4.3 | 0.00 | 0.08 | 0.03 | 70 | 1016.7 |
| 20260507135547 | 55 | 0 | 0.9 | 4.3 | 0.00 | 0.12 | 0.03 | 69 | 1016.6 |
| 20260507135047 | 55 | 0 | 0.0 | 4.3 | 0.00 | 0.12 | 0.03 | 72 | 1016.6 |
| 20260507134553 | 55 | 0 | 0.0 | 6.1 | 0.00 | 0.12 | 0.03 | 72 | 1016.7 |
| 20260507134043 | 56 | 0 | 0.9 | 6.1 | 0.00 | 0.12 | 0.03 | 74 | 1016.7 |
| 20260507133545 | 55 | 0 | 0.0 | 7.0 | 0.00 | 0.12 | 0.03 | 73 | 1016.6 |
| 20260507133056 | 55 | 313 | 0.0 | 7.0 | 0.00 | 0.12 | 0.03 | 75 | 1016.5 |